AMX171 MMTJ-MMMX

Flight info

Callsign AMX171
Flight time 2h 41m
Altitude 41000
Route TEVIR2B TEVIR DCT NABLA DCT AVOXU DCT XOTOL DCT DARAN DARAN3A
Aircraft B772/H-SDE2E3FGHIJ5LORVWXY/LB1D1

Departure

Time 2026-04-30 19:58
Airport General Abelardo L. Rodriguez International Airport (MMTJ)

Arrival

Time 2026-04-30 22:39
Airport Mexico City Benito Juárez International Airport (MMMX)
Time Latitude Longitude Altitude Speed Heading
2026-04-30 19:46 32.54427 -116.97423 472 ft 0 kts 343°
2026-04-30 19:51 32.54426 -116.97422 472 ft 1 kts 343°
2026-04-30 19:52 32.54383 -116.97407 471 ft 11 kts 344°
2026-04-30 19:52 32.54309 -116.97382 470 ft 7 kts 25°
2026-04-30 19:52 32.54299 -116.97398 469 ft 3 kts 77°
2026-04-30 19:52 32.54298 -116.97410 469 ft 0 kts 77°
2026-04-30 19:53 32.54301 -116.97390 469 ft 5 kts 77°
2026-04-30 19:53 32.54308 -116.97327 470 ft 9 kts 90°
2026-04-30 19:53 32.54302 -116.97244 470 ft 11 kts 97°
2026-04-30 19:53 32.54289 -116.97137 470 ft 14 kts 98°
2026-04-30 19:54 32.54274 -116.97016 470 ft 14 kts 96°
2026-04-30 19:54 32.54262 -116.96899 472 ft 14 kts 97°
2026-04-30 19:54 32.54248 -116.96776 473 ft 15 kts 98°
2026-04-30 19:54 32.54232 -116.96654 476 ft 15 kts 98°
2026-04-30 19:55 32.54216 -116.96532 479 ft 14 kts 99°
2026-04-30 19:55 32.54201 -116.96413 482 ft 15 kts 97°
2026-04-30 19:55 32.54187 -116.96287 485 ft 15 kts 98°
2026-04-30 19:55 32.54170 -116.96159 487 ft 16 kts 99°
2026-04-30 19:56 32.54149 -116.96017 487 ft 18 kts 98°
2026-04-30 19:56 32.54127 -116.95866 485 ft 18 kts 100°
2026-04-30 19:56 32.54107 -116.95717 482 ft 17 kts 99°
2026-04-30 19:56 32.54087 -116.95573 479 ft 18 kts 99°
2026-04-30 19:57 32.54054 -116.95470 475 ft 6 kts 142°
2026-04-30 19:57 32.54007 -116.95459 474 ft 13 kts 176°
2026-04-30 19:57 32.53945 -116.95488 473 ft 0 kts 236°
2026-04-30 19:57 32.53930 -116.95538 474 ft 12 kts 265°
2026-04-30 19:58 32.53953 -116.95788 479 ft 69 kts 277°
2026-04-30 19:58 32.54070 -116.96670 477 ft 146 kts 277°
2026-04-30 19:58 32.54210 -116.98056 853 ft 182 kts 273°
2026-04-30 19:58 32.54227 -116.99593 1374 ft 212 kts 269°
2026-04-30 19:59 32.53915 -117.01432 1846 ft 239 kts 244°
2026-04-30 19:59 32.53006 -117.03046 2519 ft 241 kts 242°
2026-04-30 19:59 32.52065 -117.06607 4563 ft 220 kts 259°
2026-04-30 20:00 32.51833 -117.07750 4703 ft 215 kts 251°
2026-04-30 20:00 32.47178 -117.10729 5315 ft 277 kts 165°
2026-04-30 20:01 32.44395 -117.07809 5630 ft 276 kts 111°
2026-04-30 20:01 32.43677 -117.05708 5802 ft 275 kts 109°
2026-04-30 20:01 32.42996 -117.03630 5972 ft 276 kts 109°
2026-04-30 20:02 32.41600 -116.99356 6314 ft 280 kts 109°
2026-04-30 20:02 32.40897 -116.97208 6482 ft 279 kts 109°
2026-04-30 20:03 32.39500 -116.92944 6827 ft 278 kts 109°
2026-04-30 20:03 32.38804 -116.90820 6999 ft 278 kts 109°
2026-04-30 20:03 32.38106 -116.88694 7306 ft 276 kts 109°
2026-04-30 20:03 32.37406 -116.86559 7793 ft 279 kts 109°
2026-04-30 20:04 32.36703 -116.84417 8286 ft 282 kts 109°
2026-04-30 20:04 32.35997 -116.82272 8782 ft 287 kts 109°
2026-04-30 20:04 32.35263 -116.80035 9313 ft 295 kts 109°
2026-04-30 20:05 32.33590 -116.75620 10289 ft 298 kts 119°
2026-04-30 20:05 32.32438 -116.73560 10773 ft 301 kts 122°
2026-04-30 20:05 32.30055 -116.69443 11744 ft 305 kts 122°
2026-04-30 20:06 32.28859 -116.67374 12188 ft 314 kts 122°
2026-04-30 20:06 32.27595 -116.65183 12494 ft 334 kts 123°
2026-04-30 20:06 32.26232 -116.62826 12804 ft 353 kts 123°
2026-04-30 20:06 32.24823 -116.60390 13081 ft 372 kts 123°
2026-04-30 20:07 32.23327 -116.57806 13535 ft 385 kts 123°
2026-04-30 20:07 32.21829 -116.55219 14329 ft 386 kts 123°
2026-04-30 20:07 32.19065 -116.49818 15797 ft 391 kts 114°
2026-04-30 20:08 32.17876 -116.46862 16441 ft 398 kts 113°
2026-04-30 20:08 32.16700 -116.43928 17116 ft 402 kts 113°
2026-04-30 20:08 32.15499 -116.40936 17796 ft 407 kts 113°
2026-04-30 20:08 32.14283 -116.37913 18521 ft 410 kts 113°
2026-04-30 20:09 32.13065 -116.34888 19180 ft 414 kts 114°
2026-04-30 20:09 32.11820 -116.31801 19769 ft 420 kts 114°
2026-04-30 20:09 32.09293 -116.25544 21060 ft 428 kts 114°
2026-04-30 20:10 32.06715 -116.19177 22304 ft 436 kts 113°
2026-04-30 20:10 32.05391 -116.15910 22935 ft 439 kts 113°
2026-04-30 20:10 32.04085 -116.12691 23524 ft 443 kts 114°
2026-04-30 20:11 32.01399 -116.06082 24536 ft 452 kts 113°
2026-04-30 20:11 32.00045 -116.02754 24932 ft 459 kts 114°
2026-04-30 20:11 31.98661 -115.99355 25367 ft 464 kts 114°
2026-04-30 20:12 31.95849 -115.92464 26328 ft 471 kts 113°
2026-04-30 20:12 31.94423 -115.88975 26727 ft 476 kts 113°
2026-04-30 20:12 31.92982 -115.85449 27154 ft 481 kts 113°
2026-04-30 20:13 31.91536 -115.81919 27556 ft 485 kts 114°
2026-04-30 20:13 31.89875 -115.78479 27921 ft 492 kts 121°
2026-04-30 20:13 31.87915 -115.75118 28125 ft 502 kts 123°
2026-04-30 20:13 31.85889 -115.71727 28423 ft 508 kts 123°
2026-04-30 20:14 31.83856 -115.68330 28860 ft 511 kts 124°
2026-04-30 20:14 31.81807 -115.64909 29216 ft 515 kts 124°
2026-04-30 20:14 31.79735 -115.61448 29629 ft 518 kts 126°
2026-04-30 20:14 31.77686 -115.58030 30111 ft 518 kts 127°
2026-04-30 20:15 31.75603 -115.54555 30786 ft 513 kts 127°
2026-04-30 20:15 31.73587 -115.51196 31394 ft 509 kts 127°
2026-04-30 20:15 31.71549 -115.47801 31952 ft 507 kts 128°
2026-04-30 20:15 31.69533 -115.44448 32480 ft 504 kts 128°
2026-04-30 20:16 31.67494 -115.41058 33030 ft 501 kts 128°
2026-04-30 20:16 31.65489 -115.37728 33576 ft 500 kts 129°
2026-04-30 20:16 31.63465 -115.34369 34078 ft 499 kts 129°
2026-04-30 20:16 31.61475 -115.31069 34542 ft 499 kts 130°
2026-04-30 20:17 31.59464 -115.27737 35085 ft 497 kts 130°
2026-04-30 20:17 31.57432 -115.24372 35540 ft 496 kts 130°
2026-04-30 20:17 31.55409 -115.21027 35921 ft 496 kts 130°
2026-04-30 20:17 31.53426 -115.17750 36402 ft 494 kts 130°
2026-04-30 20:18 31.51404 -115.14410 36749 ft 494 kts 130°
2026-04-30 20:18 31.49425 -115.11146 36978 ft 495 kts 130°
2026-04-30 20:18 31.47398 -115.07805 37279 ft 496 kts 130°
2026-04-30 20:18 31.45395 -115.04506 37624 ft 494 kts 130°
2026-04-30 20:19 31.43424 -115.01260 37902 ft 494 kts 131°
2026-04-30 20:19 31.41411 -114.97952 38224 ft 493 kts 131°
2026-04-30 20:19 31.39438 -114.94710 38361 ft 496 kts 131°
2026-04-30 20:19 31.37424 -114.91406 38540 ft 497 kts 131°
2026-04-30 20:20 31.35412 -114.88104 38842 ft 496 kts 131°
2026-04-30 20:20 31.33420 -114.84837 39230 ft 492 kts 131°
2026-04-30 20:20 31.31436 -114.81588 39439 ft 493 kts 131°
2026-04-30 20:20 31.29440 -114.78323 39612 ft 493 kts 131°
2026-04-30 20:21 31.27448 -114.75068 39764 ft 494 kts 132°
2026-04-30 20:21 31.25437 -114.71783 39948 ft 493 kts 132°
2026-04-30 20:21 31.23454 -114.68545 40179 ft 492 kts 132°
2026-04-30 20:21 31.21452 -114.65281 40378 ft 490 kts 132°
2026-04-30 20:22 31.19464 -114.62041 40420 ft 492 kts 132°
2026-04-30 20:22 31.17460 -114.58780 40565 ft 491 kts 133°
2026-04-30 20:22 31.15470 -114.55543 40707 ft 491 kts 133°
2026-04-30 20:23 31.11491 -114.49078 40802 ft 491 kts 133°
2026-04-30 20:23 31.07523 -114.42643 40799 ft 492 kts 133°
2026-04-30 20:24 31.03550 -114.36208 40798 ft 491 kts 133°
2026-04-30 20:24 30.99551 -114.29743 40788 ft 489 kts 134°
2026-04-30 20:25 30.93598 -114.20139 40808 ft 488 kts 134°
2026-04-30 20:26 30.87657 -114.10578 40809 ft 489 kts 134°
2026-04-30 20:26 30.81681 -114.00981 40804 ft 487 kts 134°
2026-04-30 20:27 30.73732 -113.88253 40802 ft 485 kts 135°
2026-04-30 20:28 30.65766 -113.75545 40803 ft 487 kts 135°
2026-04-30 20:30 30.55773 -113.59653 40825 ft 488 kts 135°
2026-04-30 20:31 30.43704 -113.40547 40813 ft 490 kts 135°
2026-04-30 20:32 30.33644 -113.24688 40803 ft 489 kts 135°
2026-04-30 20:33 30.27597 -113.15188 40823 ft 490 kts 136°
2026-04-30 20:34 30.21525 -113.05669 40828 ft 492 kts 136°
2026-04-30 20:35 30.15451 -112.96169 40815 ft 491 kts 136°
2026-04-30 20:35 30.09352 -112.86655 40823 ft 492 kts 136°
2026-04-30 20:36 30.05286 -112.80325 40825 ft 492 kts 136°
2026-04-30 20:37 29.99155 -112.70795 40838 ft 492 kts 136°
2026-04-30 20:37 29.95102 -112.64508 40848 ft 491 kts 136°
2026-04-30 20:38 29.91011 -112.58174 40868 ft 492 kts 136°
2026-04-30 20:38 29.86951 -112.51897 40886 ft 493 kts 136°
2026-04-30 20:39 29.80808 -112.42415 40902 ft 489 kts 136°
2026-04-30 20:40 29.74731 -112.33058 40881 ft 489 kts 137°
2026-04-30 20:40 29.70655 -112.26798 40872 ft 491 kts 137°
2026-04-30 20:41 29.64529 -112.17400 40904 ft 490 kts 137°
2026-04-30 20:41 29.60433 -112.11132 40905 ft 491 kts 137°
2026-04-30 20:42 29.56386 -112.04942 40896 ft 487 kts 137°
2026-04-30 20:43 29.50245 -111.95576 40898 ft 489 kts 137°
2026-04-30 20:43 29.46148 -111.89339 40872 ft 493 kts 137°
2026-04-30 20:44 29.39956 -111.79928 40889 ft 491 kts 137°
2026-04-30 20:45 29.31739 -111.67471 40890 ft 491 kts 137°
2026-04-30 20:45 29.27604 -111.61220 40889 ft 491 kts 137°
2026-04-30 20:46 29.19343 -111.48756 40890 ft 495 kts 137°
2026-04-30 20:47 29.13132 -111.39403 40892 ft 490 kts 137°
2026-04-30 20:48 29.06929 -111.30093 40880 ft 494 kts 137°
2026-04-30 20:48 29.02762 -111.23846 40880 ft 492 kts 137°
2026-04-30 20:49 28.98626 -111.17657 40896 ft 494 kts 138°
2026-04-30 20:50 28.92346 -111.08279 40891 ft 497 kts 137°
2026-04-30 20:50 28.88145 -111.02013 40901 ft 496 kts 137°
2026-04-30 20:51 28.83933 -110.95746 40894 ft 499 kts 137°
2026-04-30 20:51 28.77595 -110.86327 40891 ft 501 kts 138°
2026-04-30 20:52 28.73353 -110.80035 40898 ft 501 kts 138°
2026-04-30 20:53 28.66992 -110.70618 40896 ft 501 kts 137°
2026-04-30 20:53 28.62760 -110.64363 40902 ft 501 kts 138°
2026-04-30 20:54 28.56398 -110.54984 40899 ft 504 kts 137°
2026-04-30 20:55 28.49967 -110.45519 40886 ft 504 kts 137°
2026-04-30 20:55 28.45698 -110.39247 40884 ft 502 kts 137°
2026-04-30 20:56 28.39249 -110.29792 40865 ft 505 kts 137°
2026-04-30 20:57 28.32796 -110.20351 40872 ft 505 kts 137°
2026-04-30 20:57 28.28513 -110.14098 40856 ft 505 kts 137°
2026-04-30 20:58 28.22060 -110.04694 40856 ft 506 kts 137°
2026-04-30 20:58 28.17734 -109.98398 40864 ft 504 kts 137°
2026-04-30 20:59 28.11190 -109.89065 40859 ft 505 kts 138°
2026-04-30 21:00 28.02340 -109.76583 40835 ft 505 kts 138°
2026-04-30 21:01 27.95745 -109.67301 40834 ft 505 kts 138°
2026-04-30 21:02 27.89138 -109.58015 40882 ft 502 kts 138°
2026-04-30 21:02 27.84766 -109.51886 40910 ft 504 kts 138°
2026-04-30 21:03 27.80348 -109.45699 40921 ft 505 kts 138°
2026-04-30 21:03 27.75945 -109.39538 40907 ft 504 kts 138°
2026-04-30 21:04 27.71522 -109.33363 40886 ft 506 kts 139°
2026-04-30 21:04 27.64934 -109.24175 40851 ft 504 kts 139°
2026-04-30 21:05 27.60543 -109.18063 40879 ft 503 kts 139°
2026-04-30 21:05 27.56121 -109.11919 40912 ft 503 kts 139°
2026-04-30 21:06 27.51730 -109.05825 40955 ft 504 kts 138°
2026-04-30 21:06 27.47306 -108.99695 40975 ft 504 kts 138°
2026-04-30 21:07 27.42895 -108.93588 40962 ft 504 kts 138°
2026-04-30 21:07 27.38461 -108.87461 40941 ft 505 kts 138°
2026-04-30 21:08 27.34004 -108.81312 40931 ft 508 kts 138°
2026-04-30 21:08 27.29575 -108.75204 40923 ft 504 kts 138°
2026-04-30 21:09 27.25111 -108.69062 40926 ft 505 kts 138°
2026-04-30 21:09 27.20661 -108.62949 40936 ft 508 kts 138°
2026-04-30 21:10 27.16184 -108.56802 40930 ft 505 kts 137°
2026-04-30 21:10 27.11731 -108.50700 40902 ft 509 kts 137°
2026-04-30 21:11 27.07208 -108.44511 40909 ft 508 kts 138°
2026-04-30 21:11 27.02708 -108.38361 40895 ft 509 kts 137°
2026-04-30 21:12 26.98208 -108.32220 40860 ft 510 kts 138°
2026-04-30 21:12 26.93699 -108.26072 40870 ft 507 kts 138°
2026-04-30 21:13 26.89218 -108.19974 40913 ft 507 kts 138°
2026-04-30 21:13 26.84720 -108.13863 40966 ft 510 kts 138°
2026-04-30 21:14 26.80195 -108.07721 41037 ft 508 kts 138°
2026-04-30 21:14 26.75702 -108.01631 41105 ft 509 kts 138°
2026-04-30 21:15 26.71191 -107.95526 41135 ft 510 kts 137°
2026-04-30 21:15 26.66703 -107.89460 41130 ft 509 kts 137°
2026-04-30 21:16 26.62186 -107.83364 41137 ft 511 kts 137°
2026-04-30 21:16 26.57649 -107.77248 41162 ft 511 kts 137°
2026-04-30 21:17 26.53152 -107.71195 41184 ft 510 kts 137°
2026-04-30 21:17 26.48616 -107.65095 41180 ft 510 kts 137°
2026-04-30 21:18 26.44090 -107.59021 41158 ft 511 kts 136°
2026-04-30 21:18 26.39540 -107.52921 41161 ft 511 kts 136°
2026-04-30 21:19 26.34977 -107.46812 41195 ft 511 kts 136°
2026-04-30 21:19 26.30451 -107.40761 41221 ft 511 kts 136°
2026-04-30 21:20 26.25884 -107.34663 41245 ft 511 kts 137°
2026-04-30 21:20 26.21345 -107.28611 41268 ft 511 kts 137°
2026-04-30 21:21 26.16789 -107.22543 41266 ft 509 kts 136°
2026-04-30 21:22 26.09951 -107.13454 41225 ft 512 kts 136°
2026-04-30 21:23 26.00844 -107.01375 41349 ft 512 kts 136°
2026-04-30 21:23 25.94002 -106.92321 41369 ft 512 kts 136°
2026-04-30 21:24 25.89404 -106.86247 41362 ft 512 kts 136°
2026-04-30 21:24 25.84821 -106.80201 41346 ft 510 kts 136°
2026-04-30 21:25 25.77971 -106.71178 41331 ft 510 kts 136°
2026-04-30 21:26 25.71112 -106.62163 41338 ft 511 kts 136°
2026-04-30 21:27 25.64246 -106.53154 41332 ft 511 kts 136°
2026-04-30 21:27 25.59646 -106.47128 41354 ft 510 kts 135°
2026-04-30 21:28 25.52743 -106.38103 41380 ft 512 kts 135°
2026-04-30 21:29 25.45866 -106.29127 41384 ft 511 kts 136°
2026-04-30 21:30 25.34375 -106.14168 41399 ft 511 kts 136°
2026-04-30 21:31 25.22889 -105.99263 41413 ft 509 kts 135°
2026-04-30 21:32 25.15988 -105.90334 41430 ft 510 kts 135°
2026-04-30 21:32 25.11370 -105.84366 41420 ft 510 kts 135°
2026-04-30 21:33 25.04435 -105.75418 41439 ft 511 kts 135°
2026-04-30 21:34 24.99831 -105.69487 41434 ft 510 kts 135°
2026-04-30 21:34 24.92913 -105.60590 41401 ft 511 kts 135°
2026-04-30 21:35 24.88305 -105.54672 41396 ft 510 kts 135°
2026-04-30 21:35 24.83673 -105.48732 41388 ft 509 kts 135°
2026-04-30 21:36 24.79071 -105.42838 41391 ft 510 kts 135°
2026-04-30 21:37 24.69815 -105.31004 41354 ft 506 kts 135°
2026-04-30 21:37 24.65188 -105.25099 41346 ft 508 kts 135°
2026-04-30 21:38 24.60627 -105.19231 41362 ft 507 kts 134°
2026-04-30 21:38 24.56052 -105.13319 41376 ft 507 kts 135°
2026-04-30 21:39 24.51477 -105.07416 41382 ft 508 kts 135°
2026-04-30 21:39 24.46893 -105.01511 41401 ft 508 kts 134°
2026-04-30 21:40 24.42335 -104.95646 41404 ft 505 kts 134°
2026-04-30 21:40 24.37779 -104.89793 41397 ft 505 kts 135°
2026-04-30 21:41 24.33188 -104.83903 41375 ft 505 kts 134°
2026-04-30 21:41 24.28643 -104.78078 41332 ft 504 kts 134°
2026-04-30 21:42 24.24082 -104.72240 41306 ft 505 kts 134°
2026-04-30 21:42 24.19524 -104.66413 41218 ft 505 kts 135°
2026-04-30 21:43 24.14958 -104.60581 41176 ft 503 kts 135°
2026-04-30 21:43 24.10407 -104.54778 41163 ft 503 kts 134°
2026-04-30 21:44 24.05858 -104.48983 41160 ft 502 kts 134°
2026-04-30 21:44 24.01291 -104.43172 41205 ft 500 kts 134°
2026-04-30 21:45 23.96735 -104.37382 41243 ft 503 kts 134°
2026-04-30 21:45 23.92166 -104.31583 41252 ft 502 kts 135°
2026-04-30 21:46 23.87602 -104.25796 41286 ft 503 kts 134°
2026-04-30 21:46 23.83011 -104.19983 41278 ft 502 kts 134°
2026-04-30 21:47 23.78458 -104.14223 41266 ft 500 kts 134°
2026-04-30 21:47 23.73923 -104.08494 41265 ft 501 kts 134°
2026-04-30 21:48 23.69373 -104.02753 41282 ft 503 kts 134°
2026-04-30 21:48 23.64788 -103.96974 41295 ft 502 kts 134°
2026-04-30 21:49 23.60195 -103.91192 41312 ft 503 kts 134°
2026-04-30 21:49 23.55637 -103.85460 41327 ft 502 kts 134°
2026-04-30 21:50 23.51069 -103.79722 41331 ft 502 kts 134°
2026-04-30 21:50 23.46468 -103.73949 41338 ft 501 kts 134°
2026-04-30 21:51 23.41919 -103.68249 41363 ft 501 kts 134°
2026-04-30 21:51 23.37361 -103.62543 41376 ft 501 kts 134°
2026-04-30 21:52 23.32772 -103.56807 41391 ft 503 kts 134°
2026-04-30 21:52 23.28196 -103.51093 41400 ft 501 kts 134°
2026-04-30 21:53 23.23626 -103.45391 41393 ft 501 kts 134°
2026-04-30 21:53 23.18993 -103.39619 41380 ft 502 kts 134°
2026-04-30 21:54 23.14410 -103.33914 41364 ft 502 kts 134°
2026-04-30 21:54 23.09801 -103.28185 41374 ft 501 kts 134°
2026-04-30 21:55 23.05194 -103.22463 41384 ft 502 kts 134°
2026-04-30 21:55 23.00615 -103.16784 41406 ft 501 kts 134°
2026-04-30 21:56 22.96020 -103.11091 41420 ft 502 kts 134°
2026-04-30 21:56 22.91414 -103.05391 41429 ft 502 kts 134°
2026-04-30 21:57 22.86842 -102.99738 41412 ft 500 kts 134°
2026-04-30 21:57 22.82249 -102.94067 41397 ft 501 kts 134°
2026-04-30 21:58 22.77647 -102.88390 41379 ft 501 kts 134°
2026-04-30 21:58 22.73076 -102.82758 41373 ft 500 kts 134°
2026-04-30 21:59 22.68465 -102.77084 41370 ft 501 kts 134°
2026-04-30 22:00 22.61583 -102.68625 41377 ft 501 kts 134°
2026-04-30 22:00 22.54669 -102.60142 41374 ft 500 kts 134°
2026-04-30 22:01 22.50057 -102.54490 41378 ft 499 kts 134°
2026-04-30 22:01 22.45464 -102.48869 41383 ft 499 kts 134°
2026-04-30 22:02 22.40869 -102.43250 41362 ft 499 kts 133°
2026-04-30 22:02 22.36276 -102.37640 41349 ft 499 kts 133°
2026-04-30 22:03 22.31683 -102.32037 41320 ft 497 kts 134°
2026-04-30 22:03 22.27100 -102.26453 41290 ft 498 kts 134°
2026-04-30 22:04 22.22502 -102.20854 41281 ft 496 kts 134°
2026-04-30 22:05 22.15617 -102.12484 41282 ft 497 kts 134°
2026-04-30 22:05 22.11028 -102.06911 41297 ft 496 kts 134°
2026-04-30 22:06 22.06433 -102.01338 41311 ft 497 kts 134°
2026-04-30 22:06 21.99551 -101.93003 41330 ft 497 kts 134°
2026-04-30 22:07 21.94949 -101.87436 41338 ft 495 kts 134°
2026-04-30 22:07 21.90374 -101.81907 41345 ft 495 kts 133°
2026-04-30 22:08 21.85835 -101.76295 41350 ft 495 kts 132°
2026-04-30 22:08 21.81324 -101.70703 41351 ft 494 kts 132°
2026-04-30 22:09 21.76838 -101.65151 41350 ft 494 kts 132°
2026-04-30 22:09 21.72314 -101.59561 41354 ft 494 kts 132°
2026-04-30 22:10 21.67789 -101.53977 41350 ft 494 kts 132°
2026-04-30 22:10 21.63290 -101.48431 41349 ft 494 kts 132°
2026-04-30 22:11 21.56483 -101.40054 41346 ft 493 kts 132°
2026-04-30 22:12 21.51983 -101.34521 41346 ft 494 kts 132°
2026-04-30 22:12 21.47453 -101.28959 41340 ft 492 kts 132°
2026-04-30 22:13 21.42956 -101.23443 41358 ft 493 kts 132°
2026-04-30 22:13 21.38446 -101.17916 41366 ft 491 kts 132°
2026-04-30 22:14 21.34135 -101.12639 41371 ft 492 kts 132°
2026-04-30 22:14 21.29797 -101.07334 41355 ft 492 kts 132°
2026-04-30 22:15 21.25265 -101.01796 41327 ft 490 kts 132°
2026-04-30 22:15 21.20784 -100.96326 41308 ft 491 kts 132°
2026-04-30 22:16 21.16281 -100.90836 41301 ft 491 kts 132°
2026-04-30 22:17 21.07253 -100.79845 41294 ft 490 kts 131°
2026-04-30 22:17 21.00460 -100.71589 41293 ft 491 kts 131°
2026-04-30 22:18 20.93677 -100.63357 41310 ft 491 kts 131°
2026-04-30 22:19 20.86914 -100.55161 41330 ft 489 kts 131°
2026-04-30 22:20 20.80151 -100.46979 41320 ft 490 kts 131°
2026-04-30 22:20 20.73364 -100.38779 41265 ft 491 kts 131°
2026-04-30 22:21 20.68865 -100.33350 41251 ft 491 kts 131°
2026-04-30 22:21 20.64322 -100.27872 41216 ft 492 kts 131°
2026-04-30 22:22 20.59780 -100.22402 41199 ft 492 kts 131°
2026-04-30 22:22 20.55262 -100.16967 41215 ft 492 kts 131°
2026-04-30 22:23 20.50724 -100.11513 41275 ft 493 kts 131°
2026-04-30 22:23 20.46156 -100.06026 41292 ft 493 kts 131°
2026-04-30 22:24 20.41601 -100.00562 41337 ft 493 kts 131°
2026-04-30 22:24 20.37071 -99.95132 41352 ft 492 kts 131°
2026-04-30 22:25 20.32511 -99.89673 41383 ft 492 kts 131°
2026-04-30 22:25 20.28065 -99.84354 41386 ft 464 kts 131°
2026-04-30 22:26 20.23932 -99.79414 40373 ft 436 kts 131°
2026-04-30 22:26 20.21898 -99.77033 39252 ft 434 kts 135°
2026-04-30 22:26 20.19649 -99.74932 38209 ft 432 kts 143°
2026-04-30 22:27 20.17236 -99.73041 37227 ft 431 kts 144°
2026-04-30 22:27 20.14808 -99.71166 36249 ft 429 kts 144°
2026-04-30 22:27 20.09982 -99.67451 34298 ft 426 kts 144°
2026-04-30 22:28 20.05193 -99.63773 32236 ft 427 kts 145°
2026-04-30 22:28 20.02756 -99.61903 30895 ft 435 kts 145°
2026-04-30 22:29 19.95295 -99.56182 26923 ft 451 kts 144°
2026-04-30 22:29 19.92743 -99.54227 25617 ft 453 kts 144°
2026-04-30 22:30 19.82663 -99.46511 21097 ft 434 kts 144°
2026-04-30 22:31 19.75681 -99.41173 18998 ft 396 kts 143°
2026-04-30 22:32 19.69234 -99.36250 16943 ft 366 kts 143°
2026-04-30 22:32 19.65104 -99.33099 15560 ft 368 kts 143°
2026-04-30 22:33 19.59201 -99.28593 14386 ft 320 kts 142°
2026-04-30 22:33 19.55806 -99.25944 14344 ft 279 kts 142°
2026-04-30 22:34 19.51012 -99.23553 13243 ft 250 kts 174°
2026-04-30 22:35 19.47487 -99.23434 11914 ft 259 kts 178°
2026-04-30 22:36 19.40324 -99.23258 9927 ft 237 kts 170°
2026-04-30 22:36 19.38859 -99.22744 9858 ft 211 kts 146°
2026-04-30 22:37 19.37216 -99.19051 9320 ft 185 kts 87°
2026-04-30 22:37 19.37535 -99.17746 9293 ft 186 kts 68°
2026-04-30 22:37 19.38888 -99.15372 8798 ft 189 kts 62°
2026-04-30 22:38 19.40174 -99.13094 8316 ft 174 kts 62°
2026-04-30 22:38 19.41390 -99.10927 7874 ft 173 kts 62°
2026-04-30 22:39 19.42038 -99.09802 7663 ft 181 kts 61°
2026-04-30 22:39 19.43740 -99.06718 7349 ft 47 kts 59°
2026-04-30 22:40 19.43443 -99.06760 7347 ft 28 kts 210°
2026-04-30 22:41 19.43058 -99.07354 7351 ft 42 kts 243°
2026-04-30 22:41 19.42854 -99.07687 7353 ft 12 kts 194°
2026-04-30 22:42 19.42789 -99.07746 7353 ft 0 kts 234°
2026-04-30 22:43 19.42779 -99.07759 7353 ft 0 kts 240°